Regional Weather Roundup
Issued by NWS

Home | Current Version | Previous Version | Graphics & Text | Print | Product List | Glossary On
Versions: 1 2 3 4 5 6 7 8 9 10 11 12 13 14 15 16 17 18 19 20 21 22 23 24 25 26 27 28 29 30 31 32 33 34 35 36 37 38 39 40 41 42 43 44 45 46 47 48 49 50
000
ASUS45 KCYS 252010
RWRWY

WYOMING REGIONAL WEATHER ROUNDUP
NATIONAL WEATHER SERVICE CHEYENNE WY
100 PM MST TUE NOV 25 2014

NOTE:  "FAIR" INDICATES FEW OR NO CLOUDS BELOW 12,000 FEET
WITH NO SIGNIFICANT WEATHER AND/OR OBSTRUCTIONS TO VISIBILITY.

WYZ001-252100-
YELLOWSTONE NATIONAL PARK

CITY           SKY/WX    TMP DP  RH WIND       PRES   REMARKS
LK YELLOWSTONE   N/A     27  24  89 VRB6      30.00R WCI  20
W YELLOWSTONE  NOT AVBL

$$
WYZ002>013-054>058-071-098>099-252100-
NORTHERN WYOMING

CITY           SKY/WX    TMP DP  RH WIND       PRES   REMARKS
JACKSON        LGT SNOW  30  28  93 S17       30.02F WCI  18
CODY           CLOUDY    43  27  52 NW8       29.87R
GREYBULL       SNOW      31  29  92 NE3       29.92R VSB 1/2
WORLAND        CLOUDY    33  27  78 CALM      29.89S
SHERIDAN       SNOW      33  31  92 NW24G30   29.90R VSB 1/2 WCI  20
BUFFALO        SNOW      32  29  88 NW21G35   29.88R VSB 1/2 WCI  20
GILLETTE       LGT SNOW  33  30  88 NW22G29   29.83R FOG     WCI  21
HULETT           N/A    N/A N/A N/A MISG        N/A
NEWCASTLE      LGT SNOW  30  30 100 CALM      29.81S

$$
WYZ014>020-022>026-101>103-252100-
CENTRAL WYOMING

CITY           SKY/WX    TMP DP  RH WIND       PRES   REMARKS
BIG PINEY      PTSUNNY  N/A N/A N/A E10       30.06F
PINEDALE       LGT SNOW  30  28  93 N6        30.07F WCI  24
DUBOIS         LGT SNOW  32  27  80 NW17G24   29.90F WCI  21
LANDER         MOSUNNY   41  20  43 CALM      29.89R
RIVERTON       PTSUNNY   43  24  47 W20G26    29.88F
CASPER         CLOUDY    43  19  38 W31G39    29.83F
DOUGLAS        CLOUDY   N/A N/A N/A NW18G29   29.81F

$$
WYZ021-027>030-104>119-252100-
SOUTHERN WYOMING

CITY           SKY/WX    TMP DP  RH WIND       PRES   REMARKS
EVANSTON       PTSUNNY   34  27  75 SW33      30.21F WCI  20
KEMMERER       MOCLDY    32  28  86 W44G52    30.06F WCI  15
FORT BRIDGER   CLOUDY    37  28  72 W28G36    30.20F WCI  24
ROCK SPRINGS   PTSUNNY   36  26  67 W37G44    30.06F WCI  22
DIXON          CLOUDY    30  17  57 SW21G32   30.12F WCI  18
RAWLINS        CLOUDY    31  18  58 W37G56    29.91F WCI  15
SARATOGA       FAIR      34  21  60 W31G46    29.98F WCI  20
LARAMIE        PTSUNNY   33  18  53 W38G52    29.86F WCI  18
CHEYENNE       PTSUNNY   38  20  48 W35G46    29.85F WCI  25
TORRINGTON     LGT RAIN  38  30  73 NW21G35   29.83R WCI  28
PINE BLUFFS    CLOUDY    45  19  36 W25G36    29.84F

$$


USA.gov is the U.S. government's official web portal to all federal, state and local government web resources and services.